千帆星座-104(QIANFAN-104)

导读 | 豆包AI

QIANFAN-104是中国于2025年10月17日发射的千帆星座组网卫星,由上海航升空间(SpaceSail)研制。千帆星座作为中国首个进入正式组网阶段的大型低轨商业卫星星座,计划构建由万颗卫星组成的全球卫星互联网系统,QIANFAN-104将为全球用户提供大带宽、低时延、高可靠的宽带互联网接入服务,填补地面网络覆盖盲区,补充应急通信保障,推动全球互联基础设施建设。

基本信息
目录编号:
66046
目录名称:
QIANFAN-104
国际标识:
2025-233P
轨道中心:
EARTH
卫星名称:
千帆星座-104
卫星全名:
千帆星座-104(QIANFAN-104)
卫星状态:
在轨 (已飞行148 天)
发射日期:
2025-10-17 UTC
国别 :
中国 (CN)
星等 :
--
轨道信息
数据来源 国际轨道数据 AOE轨道数据
星历时间 2026-03-13T21:42:55+0800
13小时前
查看轨道信息
2026-03-13T17:00:00+0800
18小时前
查看轨道信息
半长轴 7446.679km 7446.676km
偏心率 0.0002121 0.0001638
轨道倾角 88.995° 88.991°
近地点辐角 83.909° 33.419°
升交点赤经 52.751° 52.769°
平近点角 276.230° 91.719°
近地点 1066.962km 1067.319km
远地点 1070.122km 1069.759km
周期 106.587分钟 106.587分钟
每日圈数 13.510108 13.510118
详细信息
卫星平台:
104
覆盖范围:
全球
运营商:
上海垣信卫星科技有限公司
运营商所在国:
中国
使用方式:
暂无
卫星简介
千帆星座,也被称为“G60星链”计划,是中国版“星链”的重要组成部分,旨在打造一个由1.4万多颗低轨宽频多媒体卫星构成的庞大星座。千帆星座计划由上海垣信卫星科技有限公司负责实施,于2023年启动建设。该项目是我国第二个低轨卫星大星座,旨在通过构建庞大的卫星网络,为全球用户提供高质量的通信和宽带互联网服务。
2D轨道图
3D轨道图
轨道高度分析图
轨道倾角分析图
轨道综合分析图
查看轨道综合分析图